Location: Northcutt
(34.7304°N, 84.4305°W)
Time: 07:41:56
(UTC+00:00)

Transit 2A Rocket - Pass Details

Date: 07 October 2022
Orbit: 589 x 911 km, 66.7° (Epoch: 04 December)

Event Time Altitude Azimuth Distance (km) Brightness Sun altitude
Exits shadow 10:58:03 11° 264° (W) 1,841 6.3 -8.8°
Maximum altitude 11:00:49 19° 306° (NW) 1,433 6.0 -8.3°
Drops below altitude 10° 11:03:52 10° 352° (N) 1,926 7.0 -7.6°
Sets 11:06:43 0° 11° (N) 2,851 8.1 -7.1°
